Showing default

KORSAT-3, 63630

Orbit data source: Space-Track

KORSAT-3, 63630 is a payload satellite owned by DAPA (KR) in LEO that was launched on Tue, 22 Apr 2025 UTC via an FALCON 9 launch vehicle from the Air Force Eastern Test Range (AFETR). Payload-class satellites include a variety of spacecraft equipped with specific instruments for various scientific and technological missions. These include communications satellites like Starlink; space stations such as the ISS; scientific satellites like the Hubble; Earth observation satellites from companies like Planet Labs, Umbra, and HawkEye 360; GPS; miniature CubeSats for education and research; and military/defense satellites.

Loading next visibility...
Identifier
63630, 2025-081A
Orbit
LEO
Country
Flag of KRKR / SKOR
Related business
Manufacturer
KAI
Mission
Operational Defense Radar Imaging
Bus & Motor
CAS500?, Unknown motor
Mass
~800 kg wet, ~750 kg dry
Launch date (UTC)
2025-04-22 (1 year ago)
Launch vehicle
FALCON 9
Launch site
Air Force Eastern Test Range (AFETR)
Object type
Payload
Rocket body
Debris
Shape & HBR
Hex Box + 3 Pan, 3.9 m
Radar Cross Section
10.467 m², Large (>1 m²)

Expand to show TLE details & history
Last TLE update: 8 hours ago

TLE from 8 hours ago
0 KORSAT-3
1 63630U 25081A   26121.74420789  .00005784  00000-0  49508-3 0  9990
2 63630  45.4111 216.5965 0005346 318.9492  41.0984 14.98484774 56210
Epoch: 2026-05-01T17:51Z
TLE epoch observation values (Epoch: 2026-05-01T17:51:39.561Z)
Latitude
0.00003°
Longitude
89.00962°
Altitude
568.823 km
Speed
7.58 km/s
True Right ascension
14h 26m 23s
True Declination
0° 00' 00"
Sunlit
Object was in full shadow at epoch
Visualization orbit readout
Latitude
Unknown
Longitude
Unknown
Altitude
Unknown
Speed
Unknown
Apparent Right ascension
Unknown
Apparent Declination
Unknown
Sunlit
N/A
Visualization observer readout
Local Sidereal Time
09:33:35
Azimuth
Unknown
Elevation
Unknown
Doppler factor
Unknown
Orbital elements
Apogee altitude
576.814 km
Perigee altitude
569.382 km
Semi-major axis
6,951.235 km
Eccentricity
0.00053
Inclination
45.4111°
RAAN
216.5965°
Arg. of periapsis
318.9492°
True anomaly
41.13869°
Mean anomaly
41.0984°
Eccentric anomaly
41.11854°
Mean motion
3.74499 °/min
Orbital period
96.13 mins
BSTAR
0.00049508
Loading maneuver chart data...
Computing Atmospheric mass density...
Loading historical data...
Loading historical data...
Loading historical data...
Loading historical data...
Loading historical data...
Loading historical data...
Loading historical data...
Other satellites on launch #81 in the year 2025 (2025-04-22 UTC)

Documentation

Showing up to 5 results
|